| time (UTC) | temp F | wind direction | speed MPH | gust MPH | rain 1hr in | rain 24hr in | rain mn in | humidity % | barometer mb |
| 20260505211535 | 75 | 293 | 5.0 | 14.0 | 0.00 | 0.00 | 0.00 | 50 | 1014.3 |
| 20260505210106 | 75 | 296 | 5.0 | 13.0 | 0.00 | 0.00 | 0.00 | 51 | 1014.5 |
| 20260505204532 | 74 | 298 | 6.0 | 13.0 | 0.00 | 0.00 | 0.00 | 50 | 1014.6 |
| 20260505203034 | 74 | 302 | 5.0 | 14.0 | 0.00 | 0.00 | 0.00 | 51 | 1014.8 |
| 20260505201534 | 74 | 294 | 6.0 | 16.0 | 0.00 | 0.00 | 0.00 | 50 | 1014.8 |
| 20260505200037 | 74 | 296 | 7.0 | 15.0 | 0.00 | 0.00 | 0.00 | 50 | 1015.0 |
| 20260505194530 | 74 | 300 | 7.0 | 18.0 | 0.00 | 0.00 | 0.00 | 51 | 1015.2 |
| 20260505191530 | 73 | 302 | 6.0 | 16.0 | 0.00 | 0.00 | 0.00 | 51 | 1015.3 |
| 20260505190032 | 73 | 304 | 6.0 | 17.0 | 0.00 | 0.00 | 0.00 | 52 | 1015.3 |
| 20260505184648 | 72 | 303 | 6.0 | 17.0 | 0.00 | 0.00 | 0.00 | 52 | 1015.5 |
| 20260505183031 | 71 | 298 | 7.0 | 19.0 | 0.00 | 0.00 | 0.00 | 53 | 1015.6 |
| 20260505181531 | 71 | 302 | 7.0 | 17.0 | 0.00 | 0.00 | 0.00 | 53 | 1015.5 |
| 20260505174535 | 70 | 304 | 5.0 | 14.0 | 0.00 | 0.00 | 0.00 | 55 | 1015.6 |
| 20260505171531 | 68 | 301 | 7.0 | 17.0 | 0.00 | 0.00 | 0.00 | 58 | 1015.6 |
| 20260505170037 | 67 | 302 | 7.0 | 16.0 | 0.00 | 0.00 | 0.00 | 60 | 1015.5 |
| 20260505164530 | 67 | 299 | 7.0 | 19.0 | 0.00 | 0.00 | 0.00 | 62 | 1015.5 |
| 20260505163035 | 66 | 305 | 7.0 | 17.0 | 0.00 | 0.00 | 0.00 | 63 | 1015.5 |
| 20260505161648 | 65 | 298 | 6.0 | 15.0 | 0.00 | 0.00 | 0.00 | 65 | 1015.6 |
| 20260505160107 | 64 | 301 | 6.0 | 15.0 | 0.00 | 0.00 | 0.00 | 66 | 1015.6 |
| 20260505153035 | 63 | 302 | 6.0 | 15.0 | 0.00 | 0.00 | 0.00 | 70 | 1015.4 |
| 20260505140144 | 56 | 296 | 3.0 | 11.0 | 0.00 | 0.00 | 0.00 | 81 | 1014.7 |
| 20260505124530 | 56 | 307 | 4.0 | 9.0 | 0.00 | 0.00 | 0.00 | 79 | 1013.9 |
| 20260505123031 | 57 | 309 | 5.0 | 13.0 | 0.00 | 0.00 | 0.00 | 79 | 1013.7 |
| 20260505121608 | 57 | 305 | 4.0 | 11.0 | 0.00 | 0.00 | 0.00 | 79 | 1013.6 |
| 20260505120142 | 57 | 299 | 4.0 | 14.0 | 0.00 | 0.00 | 0.00 | 79 | 1013.4 |
| 20260505114532 | 57 | 317 | 4.0 | 11.0 | 0.00 | 0.00 | 0.00 | 79 | 1013.3 |
| 20260505111531 | 58 | 309 | 3.0 | 8.0 | 0.00 | 0.00 | 0.00 | 77 | 1013.2 |
| 20260505101535 | 60 | 307 | 4.0 | 13.0 | 0.00 | 0.00 | 0.00 | 76 | 1012.8 |
| 20260505100043 | 59 | 300 | 5.0 | 12.0 | 0.00 | 0.00 | 0.00 | 77 | 1012.6 |
| 20260505094534 | 59 | 313 | 3.0 | 12.0 | 0.00 | 0.00 | 0.00 | 77 | 1012.6 |
| 20260505093031 | 59 | 314 | 3.0 | 7.0 | 0.00 | 0.00 | 0.00 | 77 | 1012.5 |
| 20260505091530 | 60 | 319 | 3.0 | 8.0 | 0.00 | 0.00 | 0.00 | 77 | 1012.4 |
| 20260505090035 | 60 | 312 | 3.0 | 8.0 | 0.00 | 0.00 | 0.00 | 77 | 1012.3 |
| 20260505083034 | 61 | 322 | 3.0 | 7.0 | 0.00 | 0.00 | 0.00 | 76 | 1012.2 |
| 20260505081530 | 61 | 327 | 3.0 | 7.0 | 0.00 | 0.00 | 0.00 | 75 | 1012.2 |
| 20260505080145 | 61 | 318 | 3.0 | 7.0 | 0.00 | 0.00 | 0.00 | 74 | 1012.1 |
| 20260505074535 | 62 | 317 | 2.0 | 6.0 | 0.00 | 0.00 | 0.00 | 73 | 1012.0 |
| 20260505071605 | 63 | 320 | 3.0 | 9.0 | 0.00 | 0.00 | 0.00 | 70 | 1011.7 |
| 20260505070107 | 63 | 314 | 4.0 | 8.0 | 0.00 | 0.00 | 0.00 | 69 | 1011.6 |
| 20260505064532 | 64 | 31 | 2.0 | 7.0 | 0.00 | 0.00 | 0.00 | 65 | 1011.7 |
| 20260505063106 | 65 | 57 | 1.0 | 6.0 | 0.00 | 0.00 | 0.00 | 63 | 1011.6 |
| 20260505061643 | 66 | 302 | 3.0 | 14.0 | 0.00 | 0.00 | 0.00 | 62 | 1011.3 |
| 20260505060029 | 66 | 306 | 5.0 | 11.0 | 0.00 | 0.00 | 0.00 | 61 | 1011.1 |
| 20260505054536 | 67 | 316 | 5.0 | 9.0 | 0.00 | 0.00 | 0.00 | 58 | 1011.1 |
| 20260505053031 | 68 | 281 | 5.0 | 13.0 | 0.00 | 0.00 | 0.00 | 56 | 1011.0 |
| 20260505051534 | 67 | 277 | 5.0 | 14.0 | 0.00 | 0.00 | 0.00 | 57 | 1011.0 |
| 20260505041536 | 67 | 353 | 1.0 | 6.0 | 0.00 | 0.00 | 0.00 | 59 | 1010.5 |
| 20260505034530 | 68 | 313 | 1.0 | 6.0 | 0.00 | 0.00 | 0.00 | 57 | 1010.0 |
| 20260505033036 | 69 | 299 | 2.0 | 6.0 | 0.00 | 0.00 | 0.00 | 55 | 1009.7 |
| 20260505031533 | 70 | 282 | 3.0 | 11.0 | 0.00 | 0.00 | 0.00 | 54 | 1009.5 |
| 20260505030032 | 71 | 295 | 3.0 | 10.0 | 0.00 | 0.00 | 0.00 | 53 | 1009.3 |
| 20260505024531 | 72 | 300 | 3.0 | 9.0 | 0.00 | 0.00 | 0.00 | 52 | 1009.2 |
| 20260505023032 | 73 | 304 | 5.0 | 12.0 | 0.00 | 0.00 | 0.00 | 51 | 1009.1 |
| 20260505021533 | 74 | 305 | 6.0 | 12.0 | 0.00 | 0.00 | 0.00 | 50 | 1009.0 |
| 20260505020034 | 75 | 303 | 5.0 | 12.0 | 0.00 | 0.00 | 0.00 | 48 | 1009.1 |
| 20260505014537 | 76 | 302 | 5.0 | 13.0 | 0.00 | 0.00 | 0.00 | 47 | 1009.1 |
| 20260505013032 | 77 | 292 | 6.0 | 15.0 | 0.00 | 0.00 | 0.00 | 45 | 1009.1 |
| 20260505011530 | 79 | 287 | 6.0 | 14.0 | 0.00 | 0.00 | 0.00 | 42 | 1009.1 |
| 20260505010147 | 80 | 298 | 6.0 | 12.0 | 0.00 | 0.00 | 0.00 | 41 | 1009.1 |
| 20260505003031 | 82 | 299 | 6.0 | 15.0 | 0.00 | 0.00 | 0.00 | 40 | 1009.1 |
| 20260505001531 | 83 | 298 | 5.0 | 12.0 | 0.00 | 0.00 | 0.00 | 39 | 1009.2 |
| 20260505000034 | 83 | 291 | 6.0 | 13.0 | 0.00 | 0.00 | 0.00 | 39 | 1009.2 |
| 20260504234528 | 84 | 295 | 4.0 | 13.0 | 0.00 | 0.00 | 0.00 | 39 | 1009.2 |
| 20260504233031 | 84 | 296 | 6.0 | 12.0 | 0.00 | 0.00 | 0.00 | 39 | 1009.2 |
| 20260504231531 | 84 | 296 | 5.0 | 13.0 | 0.00 | 0.00 | 0.00 | 39 | 1009.3 |
| 20260504230037 | 84 | 301 | 5.0 | 14.0 | 0.00 | 0.00 | 0.00 | 39 | 1009.4 |
| 20260504224532 | 83 | 316 | 6.0 | 13.0 | 0.00 | 0.00 | 0.00 | 40 | 1009.6 |
| 20260504223031 | 83 | 316 | 6.0 | 16.0 | 0.00 | 0.00 | 0.00 | 39 | 1009.8 |
| 20260504221536 | 84 | 304 | 5.0 | 15.0 | 0.00 | 0.00 | 0.00 | 39 | 1009.9 |
| 20260504220150 | 83 | 305 | 5.0 | 13.0 | 0.00 | 0.00 | 0.00 | 40 | 1010.0 |
| 20260504213142 | 82 | 296 | 4.0 | 12.0 | 0.00 | 0.00 | 0.00 | 41 | 1010.3 |